Regional Weather Roundup
Issued by NWS

Home | Current Version | Previous Version | Text Only | Print | Product List | Glossary Off
Versions: 1 2 3 4 5 6 7 8 9 10 11 12 13 14 15 16 17 18 19 20 21 22 23 24 25 26 27 28 29 30 31 32 33 34 35 36 37 38 39 40 41 42 43 44 45 46 47 48 49 50

000
ASUS43 KLSX 262007
RWRMO

WEATHER SUMMARY FOR MISSOURI
NATIONAL WEATHER SERVICE SPRINGFIELD MO
300 PM CDT TUE MAY 26 2015

NOTE: "FAIR" INDICATES FEW OR NO CLOUDS BELOW 12,000 FEET WITH NO
       SIGNIFICANT WEATHER AND/OR OBSTRUCTIONS TO VISIBILITY.
       CURRENT SKY AND/OR WEATHER CONDITIONS ARE NOT AVAILABLE FOR
       CHILLICOTHE AND FARMINGTON.

MOZ001>031-035>038-043-044-053-054-262100-
...NORTHERN AND WESTERN MISSOURI...

CITY           SKY/WX    TMP DP  RH WIND       PRES   REMARKS
KANSAS CTY INT PTSUNNY   76  61  59 SW18G28   29.87R
KANSAS C DTWN  MOSUNNY   78  56  46 W21G30    29.87R
LEE`S SUMMIT   MOSUNNY   77  57  50 W20G32    29.88F
ST JOSEPH      MOSUNNY   73  60  63 SW18G26   29.85R
CHILLICOTHE      N/A     77  61  57 SW13G22   29.85S
KIRKSVILLE     PTSUNNY   74  61  63 SW17      29.86R

$$
MOZ066>068-077>081-088>096-101>105-262100-
...SOUTHWEST MISSOURI...

CITY           SKY/WX    TMP DP  RH WIND       PRES   REMARKS
SPRINGFIELD    SUNNY     75  60  59 SW12      29.99F
JOPLIN         SUNNY     76  61  59 SW15      29.99S

$$
MOZ032>034-039>042-045>050-055>058-069>072-262100-
...CENTRAL MISSOURI...

CITY           SKY/WX    TMP DP  RH WIND       PRES   REMARKS
COLUMBIA       PTSUNNY   75  59  57 SW22      29.91F
JEFFERSON CITY MOSUNNY   78  58  49 SW12G24   29.91F
ROLLA          MOSUNNY   74  60  61 SW16G25   29.95S
SEDALIA        PTSUNNY   77  60  55 SW21G28   29.92S
WHITEMAN AFB   PTSUNNY   78  63  59 SW18G24   29.90S
WARRENSBURG    MOSUNNY   77  61  57 SW16G25   29.90S
OSAGE BEACH    MOSUNNY   77  57  50 SW15      29.95S

$$
MOZ051-052-059>065-262100-
...EAST CENTRAL MISSOURI...

CITY           SKY/WX    TMP DP  RH WIND       PRES   REMARKS
ST LOUIS INTL  PTSUNNY   78  61  55 SW14G26   29.92F
SPIRIT OF STL  PTSUNNY   75  63  66 SW10G20   29.91F
ST CHARLES     CLOUDY    73  63  70 NW10      29.90S

$$
MOZ072>076-082>087-097>100-106>115-262100-
...SOUTH CENTRAL AND SOUTHEAST MISSOURI...

CITY           SKY/WX    TMP DP  RH WIND       PRES   REMARKS
CAPE GIRARDEAU PTSUNNY   76  64  66 SW17G23   29.99S
FARMINGTON     CLOUDY    73  57  56 W13G23    30.02S
POPLAR BLUFF   CLOUDY    74  63  68 S15       29.99S
WEST PLAINS    MOSUNNY   74  60  61 W10       30.02F

$$


USA.gov is the U.S. government's official web portal to all federal, state and local government web resources and services.